Location: Caser�o Prados
(40.7553°N, 4.1992°W)
Time: 08:28:05
(UTC+00:00)

Daily predictions for brighter satellites

Satellite Brightness Start Highest point End
(mag) Time Altitude Azimuth Time Altitude Azimuth Time Altitude Azimuth
ATLAS CENTAUR Rocket 4.3 18:58:44 10° SW 19:04:01 39° SSE 19:26:44 10° E
H-2A R/B 2.9 19:00:34 10° SE 19:05:13 31° ENE 19:09:47 10° N
STARLINK-1269 3.5 19:03:51 10° SW 19:07:53 78° SE 19:11:56 10° NE
Okean 1 Rocket 3.9 19:04:34 10° SSW 19:08:52 56° W 19:13:10 10° N
STARLINK-1118 2.9 19:07:26 10° NW 19:09:29 33° NE 19:11:31 10° ESE
Cosmos 1544 Rocket 4.4 19:06:56 10° SSE 19:10:42 29° E 19:14:30 10° NNE
STARLINK-1200 3.5 19:08:32 10° SW 19:12:34 85° SE 19:16:38 10° NE
NOSS 0 Rocket 4.5 19:06:37 10° SW 19:12:48 67° WNW 19:18:58 10° NNE
HJ-1C 3.5 19:09:54 10° SSE 19:13:09 55° ENE 19:16:28 10° N
Cosmos 1745 Rocket 4.1 19:08:32 10° N 19:14:47 62° E 19:20:56 10° SSE
STARLINK-1192 3.6 19:13:10 10° SW 19:17:13 88° NW 19:21:17 10° NE
USA 234 3.4 19:11:48 10° NE 19:18:11 53° SE 19:24:32 10° SSW
Cosmos 2237 Rocket 2.5 19:13:16 10° SSW 19:18:51 73° WNW 19:24:30 10° NNE
Cosmos 1805 3.2 19:15:19 10° S 19:19:12 83° E 19:23:08 10° N
Meteor 2-5 Rocket 3.7 19:14:26 10° N 19:20:06 70° E 19:25:37 10° SSE
STARLINK-1244 3.7 19:17:58 10° SW 19:22:01 81° NW 19:26:04 10° NE
STARLINK-1201 4.2 19:19:25 10° WSW 19:22:31 41° NNW 19:25:39 10° NE
ADEOS Rocket 3.7 19:16:19 10° N 19:23:00 65° WNW 19:28:59 10° SSW
Cosmos 1269 Rocket 4.1 19:21:11 10° S 19:26:20 55° ESE 19:31:31 10° NNE
STARLINK-1138 3.8 19:22:40 10° WSW 19:26:43 74° NW 19:30:46 10° NE
ATLAS 3B CENTAUR R/B 4.3 19:23:45 10° WSW 19:26:51 13° SW 19:29:10 10° S
Cosmos 2278 Rocket 2.7 19:22:36 10° NNW 19:28:14 65° WSW 19:33:49 10° S
CZ-2C R/B 3.9 19:26:25 10° NE 19:29:48 17° E 19:32:38 12° SE
Cosmos 1553 Rocket 4.4 19:24:02 10° SSW 19:30:03 68° W 19:36:08 10° N
STARLINK-1066 3.8 19:27:20 10° NW 19:30:18 36° NNE 19:32:18 17° E
STARLINK-1081 3.8 19:27:48 10° NW 19:30:44 36° NNE 19:32:41 17° E
STARLINK-1070 3.7 19:28:15 10° NW 19:31:11 36° NNE 19:33:06 17° E
STARLINK-1143 3.9 19:27:27 10° WSW 19:31:30 68° NW 19:35:32 10° NE
STARLINK-1069 3.7 19:28:39 10° NW 19:31:37 37° NNE 19:33:34 18° E
STARLINK-1085 3.7 19:29:06 10° NW 19:32:04 37° NNE 19:34:00 18° E
STARLINK-1086 3.7 19:29:37 10° NW 19:32:32 37° NNE 19:34:25 18° E
CZ-4 R/B 3.9 19:29:42 10° SSW 19:32:53 24° W 19:36:03 10° NW
STARLINK-1095 3.7 19:30:03 10° NW 19:32:59 37° NNE 19:34:50 18° E
ARGOS 3.5 19:28:05 10° SE 19:33:15 47° ENE 19:38:24 10° N
STARLINK-1077 3.7 19:30:29 10° NW 19:33:25 37° NNE 19:35:16 19° E
STARLINK-1075 3.7 19:30:56 10° NW 19:33:54 38° NNE 19:35:42 19° E
STARLINK-1093 3.7 19:31:20 10° NW 19:34:20 39° NNE 19:36:10 19° E
STARLINK-1074 3.6 19:31:47 10° NW 19:34:46 39° NNE 19:36:36 19° E
STARLINK-1087 3.6 19:32:17 10° NW 19:35:14 39° NNE 19:37:00 20° E
Meteor 1-24 Rocket 3.6 19:29:55 10° N 19:35:26 69° E 19:40:45 10° SSE
STARLINK-1088 3.6 19:32:44 10° NW 19:35:41 39° NNE 19:37:26 20° E
STARLINK-1115 3.6 19:33:08 10° NW 19:36:09 40° NNE 19:37:55 20° E
STARLINK-1076 3.6 19:33:34 10° NW 19:36:36 40° NNE 19:38:20 20° E
STARLINK-1092 3.6 19:34:02 10° NW 19:37:03 41° NNE 19:38:47 21° E
STARLINK-1080 3.5 19:34:32 10° NW 19:37:30 41° NNE 19:39:10 21° E
MOS 1 4.4 19:32:02 10° SSE 19:37:31 56° ENE 19:43:03 10° N
STARLINK-1090 3.5 19:34:58 10° NW 19:37:56 41° NNE 19:39:36 21° E
STARLINK-1089 3.5 19:35:25 10° NW 19:38:25 41° NE 19:40:02 22° E
STARLINK-1107 3.5 19:35:52 10° NW 19:38:52 42° NE 19:40:28 22° E
Cosmos 1470 3.4 19:36:03 10° SSE 19:39:32 33° E 19:43:03 10° NNE
STARLINK-1241 4.2 19:38:00 10° WSW 19:41:57 56° NW 19:45:54 10° NE
Cosmos 2315 Rocket 4.1 19:37:29 10° SSE 19:43:34 55° E 19:49:44 10° NNE
STARLINK-1122 4.3 19:40:14 10° NW 19:44:03 39° NNE 19:46:17 21° E
SL-08 RB Rocket 4.2 19:40:53 14° SE 19:44:25 39° ENE 19:48:40 10° N
SJ-6B 3.2 19:42:00 12° SE 19:45:30 47° ENE 19:49:28 10° N
ISS -1.2 19:44:04 10° NNW 19:45:53 14° N 19:47:42 10° NE
STARLINK-1239 4.3 19:42:37 10° WSW 19:46:32 52° NW 19:50:29 10° NE
Cosmos 1758 3.8 19:43:36 10° SSE 19:47:24 39° E 19:51:14 10° NNE
STARLINK-1126 4.2 19:44:50 10° NW 19:48:41 42° NNE 19:50:45 23° E
STARLINK-1240 4.5 19:47:16 10° WSW 19:51:09 48° NNW 19:55:04 10° NE
IRS-1A Rocket 4.3 19:45:51 10° SSE 19:51:28 89° W 19:57:15 10° NNW
CZ-2C R/B 2.9 19:46:46 10° SSE 19:51:52 73° ENE 19:56:45 10° N
STARLINK-1082 4.1 19:49:23 10° NW 19:53:17 45° NNE 19:55:08 26° E
Cosmos 304 Rocket 3.8 19:48:35 10° NNW 19:53:23 86° WSW 19:58:10 10° SSE
Abrixas rocket 2.4 19:51:02 10° SW 19:53:50 40° SE 19:54:14 38° ESE
Resurs 01 Rocket 2.9 19:53:05 21° E 19:53:51 22° ENE 19:57:13 10° NNE
FREGAT/IRIS 2.2 19:52:27 17° S 19:54:24 87° WSW 19:57:08 10° NNW
Cosmos 2369 Rocket 3.6 19:51:40 10° N 19:55:58 22° NE 19:57:50 18° ENE
Cosmos 1733 4.0 19:52:23 10° SSW 19:56:04 52° W 19:59:46 10° N
STARLINK-1100 4.0 19:53:56 10° NW 19:57:52 48° NNE 19:59:31 29° E
Meteor 1-22 Rocket 4.5 19:52:52 10° SSW 19:58:08 66° W 20:03:24 10° N
STARLINK-1083 3.9 19:58:31 10° NW 20:02:29 52° NE 20:03:57 33° E
Cosmos 1726 4.4 20:06:30 12° NE 20:06:30 12° NE 20:06:54 10° NE
SPOT 3 Rocket 3.7 20:00:43 20° SE 20:04:12 54° ENE 20:09:18 10° N
MONITOR-E 4.3 20:04:58 24° S 20:06:18 56° W 20:08:56 10° NNW
STARLINK-1125 3.8 20:03:08 10° NW 20:07:07 56° NE 20:08:23 37° E
SL-14 R/B 3.4 20:03:21 10° N 20:07:25 81° W 20:11:03 12° S
Cosmos 1331 Rocket 4.4 20:04:23 10° NNW 20:09:28 63° WSW 20:14:32 10° S
Meteor 2-15 4.3 20:04:58 10° S 20:11:00 80° E 20:17:05 10° N
STARLINK-1109 3.7 20:07:25 10° NW 20:11:26 60° NE 20:12:32 42° E
Cosmos 1709 Rocket 4.0 20:06:12 10° N 20:12:25 87° W 20:18:33 10° S
MOS 1 Rocket 3.8 20:09:58 10° NNE 20:15:03 48° E 20:19:07 16° SSE
STARLINK-1091 3.6 20:12:06 10° NW 20:16:07 66° NE 20:17:02 48° E
Ariane Rocket 4.1 20:14:55 10° S 20:19:44 44° W 20:24:35 10° NNW
Cosmos 1943 Rocket 2.7 20:16:21 10° N 20:21:35 41° ENE 20:22:52 36° E
USA 186 3.5 20:20:54 10° SSW 20:24:04 34° W 20:27:14 10° NNW
Cosmos 2074 Rocket 4.3 20:18:51 10° N 20:24:52 46° ENE 20:26:46 36° ESE
STARLINK-1072 3.3 20:25:05 10° NW 20:29:06 84° NE 20:29:27 73° ESE
Cosmos 1953 2.2 20:29:29 64° ENE 20:29:29 64° ENE 20:33:13 10° NNE
Meteor 2-10 4.2 20:28:33 41° SE 20:29:52 51° E 20:35:09 10° NNE
NOSS 3-3 (A) 4.0 20:24:47 10° S 20:30:15 48° ESE 20:36:18 10° NE
NOSS 3-3 (C) 4.0 20:24:54 10° S 20:30:21 48° ESE 20:36:24 10° NE
IRIDIUM 106 4.2 20:25:43 10° N 20:30:56 71° E 20:32:57 38° SSE
Cosmos 1626 Rocket 3.8 20:27:41 10° NNW 20:32:03 67° W 20:34:23 26° S
Cosmos 1626 3.5 20:28:50 10° NNW 20:32:17 37° W 20:34:58 15° SSW
SL-16 R/B 3.1 20:27:11 10° SW 20:32:40 50° WNW 20:38:11 10° NNE
Spot 2 Rocket 4.4 20:33:06 31° ENE 20:33:06 31° ENE 20:37:18 10° N
TSX-5 3.9 20:28:01 10° NNW 20:33:12 81° ENE 20:33:49 64° SE
STARLINK-1096 3.3 20:29:33 10° NW 20:33:34 89° SSW 20:33:44 81° SE
Cosmos 2084 Rocket 4.4 20:31:17 10° NNW 20:35:19 34° NE 20:35:19 34° NE
STARLINK-1079 3.4 20:34:02 10° NW 20:38:03 82° SW 20:38:03 82° SW
Cosmos 1602 Rocket 3.7 20:35:13 10° NNW 20:39:41 72° W 20:41:06 42° SSW
Aureole 3 3.5 20:38:26 38° SSW 20:39:52 76° W 20:44:39 10° N
STARLINK-1116 3.6 20:38:31 10° NW 20:42:22 74° WSW 20:42:22 74° WSW
Aureole 2 Rocket 4.3 20:41:10 10° N 20:42:44 22° N 20:42:44 22° N
H-2A R/B 3.7 20:39:47 10° SSW 20:44:33 32° W 20:49:14 10° NNW
DMSP B5D2-2 4.2 20:43:01 10° N 20:48:13 73° WNW 20:53:25 10° SSW
STARLINK-1094 4.0 20:47:32 10° WNW 20:51:01 57° W 20:51:01 57° W
Cosmos 1603 3.5 20:53:26 61° SSE 20:54:15 70° ESE 20:59:51 10° NNE
Meteor 1-16 Rocket 3.9 20:54:16 72° ESE 20:54:29 73° E 20:59:54 10° NNE
ATLAS 2AS CENTAUR R/B 4.0 20:49:28 10° NNW 20:55:53 28° NE 20:57:42 25° ENE
STARLINK-1117 4.3 20:52:04 10° WNW 20:55:22 49° W 20:55:22 49° W
Cosmos 1825 Rocket 4.3 20:54:41 10° N 20:57:49 44° NNE 20:57:49 44° NNE
MetOp-B 4.1 21:01:14 64° NE 21:01:14 64° NE 21:06:18 10° N
USA 234 4.1 20:54:53 10° NE 21:01:08 49° NNW 21:07:21 10° WSW
Cosmos 2327 Rocket 4.4 20:56:51 10° N 21:03:06 65° E 21:03:23 64° E
Cosmos 1758 Rocket 4.2 21:04:00 10° N 21:07:20 51° NNW 21:07:20 51° NNW
CZ-2C R/B 3.2 21:05:23 10° N 21:10:26 55° WNW 21:14:09 18° SW
Cosmos 1992 Rocket 4.0 21:05:54 10° NNW 21:10:43 76° NNW 21:10:43 76° NNW
Cosmos 2251 Rocket 4.1 21:10:01 10° SSW 21:15:16 57° WNW 21:20:35 10° NNE
Cosmos 2184 Rocket 4.1 21:09:23 10° N 21:15:43 74° W 21:17:03 56° SSW
Meteor 2-17 Rocket 4.4 21:15:22 10° N 21:21:00 71° NE 21:21:00 71° NE
ISS -0.7 21:20:25 10° NW 21:21:09 15° NNW 21:21:09 15° NNW
ERS-1 Rocket 4.4 21:28:47 29° NNE 21:28:47 29° NNE 21:31:23 10° N
Resurs 01 Rocket 3.1 21:30:38 33° W 21:30:38 33° W 21:34:09 10° NNW
Cosmos 2154 Rocket 4.0 21:30:17 10° N 21:36:22 78° WNW 21:36:22 78° WNW
Cosmos 2369 Rocket 2.7 21:34:50 10° NNW 21:39:39 55° WNW 21:39:39 55° WNW
Cosmos 1943 4.3 22:01:06 40° NNW 22:01:06 40° NNW 22:05:32 10° NNE
Cosmos 1943 Rocket 3.9 22:00:31 10° NW 22:04:25 26° W 22:04:25 26° W
NOSS 3-4 (A) 4.3 22:07:54 10° NNW 22:13:24 53° N 22:13:24 53° N
NOSS 3-4 (C) 4.4 22:08:00 10° NNW 22:13:29 52° N 22:13:29 52° N
Terra 4.4 22:28:29 17° NNW 22:28:29 17° NNW 22:29:34 10° NNW
ATLAS 2AS CENTAUR R/B 3.7 22:40:12 10° NW 22:45:08 44° NW 22:45:08 44° NW
